CW4674 Karlstad SE current weather conditions

sailwx.info

Wind from 038

Air temperature 8.3° C
Dewpoint 7.1° C

Last reported at 2019-Oct-16 17:59 UTC.
Time now 2019-Oct-16 19:14 UTC

Location: N 59°24' E 013°36'.
View on Google Maps.

See reports from other nearby stations

  
Tides and Currents Weather Stations Pressure Air Temp Water Temp Dewpoint Dewpoint Depression Visibility Wind Speed Wind Dir Waves Ship Positions
date/time (UTC)wind fromknots sea level pressurealtimeterstation pressurevisibilityair tempwater tempwave heightnotes
2019-Oct-16 17:59 038 8.3
2019-Oct-16 17:50 043 1 gusting 4 8.3
2019-Oct-16 17:41 045 1 gusting 3 8.3
2019-Oct-16 17:32 037 8.3
2019-Oct-16 17:14 045 0 gusting 4 8.3
2019-Oct-16 16:59 043 8.9
2019-Oct-16 16:50 035 2 gusting 7 8.9
2019-Oct-16 16:32 038 1 gusting 4 8.9
2019-Oct-16 16:23 042 8.9
2019-Oct-16 16:14 043 1 gusting 4 8.9
2019-Oct-16 15:50 032 8.9
2019-Oct-16 15:41 047 0 gusting 6 8.9
2019-Oct-16 15:23 045 8.9
2019-Oct-16 14:59 046 1 gusting 3 9.4
2019-Oct-16 14:50 035 9.4
2019-Oct-16 14:32 035 9.4
2019-Oct-16 14:23 039 1 gusting 5 9.4
2019-Oct-16 13:40 047 4 gusting 4 9.4
2019-Oct-16 12:58 028 3 gusting 6 9.4
2019-Oct-16 12:49 034 0 gusting 6 9.4
2019-Oct-16 12:31 039 1 gusting 4 9.4
2019-Oct-16 12:13 043 9.4
2019-Oct-16 11:49 039 9.4
2019-Oct-16 11:40 045 9.4
2019-Oct-16 11:31 040 1 gusting 3 9.4
2019-Oct-16 10:58 028 1 gusting 4 9.4
2019-Oct-16 10:22 042 8.9
2019-Oct-16 09:31 030 0 gusting 3 8.9
2019-Oct-16 08:58 035 8.3
2019-Oct-16 08:22 039 8.3
2019-Oct-16 07:58 046 4 gusting 4 8.3
2019-Oct-16 07:49 038 1 gusting 2 8.3
2019-Oct-16 07:31 042 8.3
2019-Oct-16 06:40 036 8.3
2019-Oct-16 06:31 035 1 gusting 3 8.3
2019-Oct-16 06:22 036 8.3
2019-Oct-16 06:13 054 1 gusting 8 8.3
2019-Oct-16 05:22 036 8.3
2019-Oct-16 05:13 036 8.3
2019-Oct-16 04:58 033 0 gusting 1 8.3
2019-Oct-16 04:40 021 0 gusting 1 8.3
2019-Oct-16 04:22 024 1 gusting 3 8.3
2019-Oct-16 04:13 023 8.3
2019-Oct-16 03:49 033 8.3
2019-Oct-16 03:40 034 8.3
2019-Oct-16 03:22 355 8.3
2019-Oct-16 02:49 031 2 gusting 2 8.3
2019-Oct-16 02:40 035 8.3
2019-Oct-16 02:31 026 8.3
2019-Oct-16 02:13 027 8.3
2019-Oct-16 01:57 027 0 gusting 1 8.3
2019-Oct-16 01:12 046 8.3
2019-Oct-16 00:39 043 8.3
2019-Oct-16 00:30 035 1 gusting 2 8.3
2019-Oct-16 00:21 051 0 gusting 2 8.3
2019-Oct-15 23:39 038 7.8
2019-Oct-15 23:12 023 7.8
2019-Oct-15 22:57 049 1 gusting 3 7.8
2019-Oct-15 22:30 045 7.8
2019-Oct-15 22:21 043 0 gusting 6 7.8
2019-Oct-15 22:12 056 7.8
2019-Oct-15 21:48 045 0 gusting 4 7.8
2019-Oct-15 21:39 044 7.8
2019-Oct-15 21:12 035 7.8
2019-Oct-15 20:48 044 0 gusting 6 7.8
2019-Oct-15 20:39 039 0 gusting 4 7.8
2019-Oct-15 20:30 043 0 gusting 4 7.8
2019-Oct-15 20:12 038 7.8
2019-Oct-15 19:57 049 0 gusting 6 7.8
2019-Oct-15 19:48 038 2 gusting 5 7.8
2019-Oct-15 19:39 044 7.8
2019-Oct-15 19:30 041 0 gusting 4 7.8
2019-Oct-15 19:21 048 2 gusting 4 7.8
2019-Oct-15 19:12 045 7.8
2019-Oct-15 18:57 053 3 gusting 7 7.8
2019-Oct-15 18:48 034 7.8
2019-Oct-15 18:39 041 1 gusting 4 7.8
2019-Oct-15 18:30 041 1 gusting 7 7.8
2019-Oct-15 18:21 035 1 gusting 4 7.8
2019-Oct-15 18:12 039 0 gusting 6 7.8
2019-Oct-15 17:57 034 2 gusting 6 7.8
2019-Oct-15 17:39 049 7.8
2019-Oct-15 17:30 043 1 gusting 7 7.8
2019-Oct-15 17:21 037 3 gusting 6 7.8
2019-Oct-15 17:12 029 7.8
2019-Oct-15 16:57 047 7.8
2019-Oct-15 16:48 050 1 gusting 7 7.8
2019-Oct-15 16:39 042 2 gusting 6 7.8
2019-Oct-15 16:30 037 1 gusting 6 7.8
2019-Oct-15 16:21 043 3 gusting 4 7.8
2019-Oct-15 15:57 048 1 gusting 5 7.8
2019-Oct-15 15:39 048 2 gusting 6 7.8
2019-Oct-15 15:30 040 7.8
2019-Oct-15 15:12 038 1 gusting 6 7.8
2019-Oct-15 14:57 051 3 gusting 4 7.8
2019-Oct-15 14:39 033 3 gusting 5 7.8
2019-Oct-15 14:21 031 0 gusting 5 7.8
2019-Oct-15 13:56 035 7.8
2019-Oct-15 13:47 040 7.8
2019-Oct-15 13:11 045 7.2
2019-Oct-15 12:47 043 7.2
2019-Oct-15 12:38 043 7.2
2019-Oct-15 12:20 042 5 gusting 5 7.2
2019-Oct-15 11:56 045 1 gusting 7 7.2
2019-Oct-15 11:38 040 1 gusting 6 7.2
2019-Oct-15 11:29 045 5 gusting 6 7.2
2019-Oct-15 11:20 044 7.2
2019-Oct-15 10:56 036 4 gusting 7 7.2
2019-Oct-15 10:38 032 4 gusting 4 7.2
2019-Oct-15 10:29 032 2 gusting 5 7.2
2019-Oct-15 10:20 045 3 gusting 5 7.2
2019-Oct-15 10:11 037 1 gusting 3 7.2
2019-Oct-15 09:56 045 7.2
2019-Oct-15 09:47 044 7.2
2019-Oct-15 09:38 057 1 gusting 3 7.2
2019-Oct-15 09:29 041 7.2
2019-Oct-15 09:20 040 1 gusting 5 7.2
2019-Oct-15 09:11 042 7.2
2019-Oct-15 08:38 041 1 gusting 5 7.2
2019-Oct-15 08:29 038 7.2
2019-Oct-15 07:56 033 7.2
2019-Oct-15 07:47 046 3 gusting 6 7.2
2019-Oct-15 07:38 045 7.2
2019-Oct-15 07:29 028 7.2
2019-Oct-15 07:11 045 7.2
2019-Oct-15 06:56 035 7.2
2019-Oct-15 06:47 039 0 gusting 5 6.7
2019-Oct-15 06:38 337 6.7
2019-Oct-15 06:29 337 6.7
2019-Oct-15 05:56 337 6.7
2019-Oct-15 05:38 337 6.7
2019-Oct-15 05:29 337 6.7
2019-Oct-15 05:20 6.7
2019-Oct-15 05:11 337 6.7
2019-Oct-15 04:47 337 6.7
2019-Oct-15 04:38 337 6.7
2019-Oct-15 04:29 337 6.7
2019-Oct-15 04:20 337 6.7
2019-Oct-15 04:11 337 6.7
2019-Oct-15 03:56 6.7
2019-Oct-15 03:47 337 6.7
2019-Oct-15 03:38 337 6.7
2019-Oct-15 03:29 337 6.7
2019-Oct-15 02:56 337 6.7
2019-Oct-15 02:47 337 6.7
2019-Oct-15 02:20 6.7
2019-Oct-15 01:58 337 6.7
2019-Oct-15 01:49 337 6.7
2019-Oct-15 01:40 337 6.7
2019-Oct-15 01:31 6.7
2019-Oct-15 00:46 6.7
2019-Oct-15 00:37 337 6.7
2019-Oct-15 00:19 337 6.7
2019-Oct-15 00:10 337 6.7
2019-Oct-14 23:37 337 6.7
2019-Oct-14 23:28 337 6.7
2019-Oct-14 23:19 337 6.7
2019-Oct-14 22:46 337 6.7
2019-Oct-14 22:37 337 6.7
2019-Oct-14 22:28 337 6.7
2019-Oct-14 22:19 337 6.7
2019-Oct-14 22:10 337 6.7
2019-Oct-14 21:55 337 6.7
2019-Oct-14 21:46 337 6.7
2019-Oct-14 21:37 337 7.2
2019-Oct-14 21:19 337 7.2
2019-Oct-14 20:46 337 7.2
2019-Oct-14 20:37 337 7.2
2019-Oct-14 20:28 337 7.2
2019-Oct-14 19:55 337 7.2
2019-Oct-14 19:28 337 7.2
2019-Oct-14 19:10 337 7.2